Regional Weather Roundup
Issued by NWS

Home | Current Version | Previous Version | Text Only | Print | Product List | Glossary On
Versions: 1 2 3 4 5 6 7 8 9 10 11 12 13 14 15 16 17 18 19 20 21 22 23 24 25 26 27 28 29 30 31 32 33 34 35 36 37 38 39 40 41 42 43 44 45 46 47 48 49 50
000
ASUS44 KMEG 170710
RWRTN
TENNESSEE HOURLY STATE WEATHER ROUNDUP
NATIONAL WEATHER SERVICE MEMPHIS TN
100 AM CST SUN DEC 17 2017

TNZ002-004-019-021-049-052-054-088>092-170800-
WEST TENNESSEE

CITY           SKY/WX    TMP DP  RH WIND       PRES   REMARKS
MEMPHIS INTL   CLOUDY    47  30  51 SE6       30.12F
NWS MEMPHIS      N/A     47 N/A N/A MISG        N/A
JACKSON        CLOUDY    47  29  49 S9        30.15F
DYERSBURG      CLOUDY    45  32  60 S6        30.15
SOMERVILLE     CLOUDY    46  28  49 VRB6G13   30.12F
COVINGTON      CLOUDY    46  30  53 S6        30.13F
UNION CITY     CLOUDY    45  32  61 S8        30.13F
BOLIVAR        CLOUDY    45  30  57 SE3       30.13F
PARIS          CLOUDY    45  30  57 S9        30.14F
HUNTINGDON     CLOUDY    46  30  53 S7        30.14F
LEXINGTON      CLOUDY    43  30  61 SE3       30.16F
SELMER         MOCLDY    43  30  61 S6        30.15F
SAVANNAH       PTCLDY    43  30  61 S5        30.16F
$$

TNZ008-025-027-028-033-062-065-066-170800-
NORTH MIDDLE TENNESSEE

CITY           SKY/WX    TMP DP  RH WIND       PRES   REMARKS
NASHVILLE      CLOUDY    42  31  64 E7        30.20F
PORTLAND       CLEAR     41  30  65 S6        30.20S
CLARKSVILLE    MOCLDY    40  29  64 SE7       30.17F
SMYRNA         PTCLDY    39  30  70 SE5       30.21F
COOKEVILLE     CLEAR     37  28  70 SE3       30.21F
GALLATIN       CLEAR     41  30  65 CALM      30.24F
CROSSVILLE     CLOUDY    37  25  61 CALM      30.22F
$$

TNZ061-075-076-078-094-096-097-170800-
SOUTH MIDDLE TENNESSEE

CITY           SKY/WX    TMP DP  RH WIND       PRES   REMARKS
FAYETTEVILLE   CLEAR     41  28  60 S7        30.20F
TULLAHOMA      PTCLDY    34  28  80 CALM      30.20F
WINCHESTER     CLEAR     36  28  75 E6        30.22F WCI  31
MCMINNVILLE    CLEAR     30  27  86 CALM      30.21F
COLUMBIA       CLEAR     41  28  60 SE3       30.18F
SHELBYVILLE    CLEAR     37  28  70 SE5       30.21F WCI  34
$$

TNZ017-018-042-046-047-170800-
NORTHEAST TENNESSEE

CITY           SKY/WX    TMP DP  RH WIND       PRES   REMARKS
TRI CITIES     CLOUDY    28  26  92 CALM      30.27S
ELIZABETHTON   CLEAR     32  27  80 NE3       30.27R
$$

TNZ012-013-036-069-073-074-170800-
CENTRAL EAST TENNESSEE

CITY           SKY/WX    TMP DP  RH WIND       PRES   REMARKS
KNOXVILLE      CLOUDY    31  29  92 NE3       30.26S
OAK RIDGE      CLOUDY    31  29  92 CALM      30.28S
DOWNTOWN KNOXV   N/A     32  32 100 CALM      30.29S
GATLINBURG     CLEAR     28  27  93 CALM      30.27S
MORRISTOWN     CLEAR     32  27  80 CALM      30.26R
JACKSBORO      CLEAR     30  28  93 CALM      30.29S
$$

TNZ083-085-099-170800-
SOUTHEAST TENNESSEE

CITY           SKY/WX    TMP DP  RH WIND       PRES   REMARKS
CHATTANOOGA    PTCLDY    31  27  85 CALM      30.26F
DAYTON         SUNNY     28  28 100 CALM      30.24F
$$

SKY/WX REPORTED AS FAIR MEANS FEW OR NO CLOUDS BELOW
12 THOUSAND FEET.




USA.gov is the U.S. government's official web portal to all federal, state and local government web resources and services.